Regional Weather Roundup
Issued by NWS

Home | Current Version | Previous Version | Text Only | Print | Product List | Glossary Off
Versions: 1 2 3 4 5 6 7 8 9 10 11 12 13 14 15 16 17 18 19 20 21 22 23 24 25 26 27 28 29 30 31 32 33 34 35 36 37 38 39 40 41 42 43 44 45 46 47 48 49 50

000
ASUS45 KSLC 172210
RWRUT

UTAH REGIONAL WEATHER ROUNDUP
NATIONAL WEATHER SERVICE SALT LAKE CITY UT
400 PM MDT WED SEP 17 2014

UTZ001>011-023>025-172300-

NORTHERN UTAH

CITY           SKY/WX    TMP DP  RH WIND       PRES   REMARKS
HILL AFB       SUNNY     89  45  21 W8        29.96F
LOGAN          SUNNY     90  46  21 W3        29.93F
OGDEN          SUNNY     90  41  18 VRB5      29.93F
PROVO AIRPORT  MOSUNNY   90  45  20 CALM      29.95F
SALT LAKE CITY MOSUNNY   94  33  11 NW10      29.90F
VERNAL         PTSUNNY   81  46  29 NE7       30.03F
WENDOVER       SUNNY     93  43  17 SE10      29.89F
HEBER CITY     SUNNY     90  34  13 SW10      30.01F
WEST JORDAN    SUNNY     91  37  15 SE9       29.94F

$$

UTZ012>022-026-027-172300-

SOUTHERN UTAH

CITY           SKY/WX    TMP DP  RH WIND       PRES   REMARKS
BRYCE CANYON   PTSUNNY   71  47  42 SE10      30.21F
CEDAR CITY     TSTM      70  47  43 E25G36    30.06R
MILFORD        SUNNY     91  43  18 MISG      29.94F
MOAB/CYNLANDS  SUNNY     92  41  17 VRB5      29.93F
PRICE          SUNNY     86  34  15 VRB3      30.06F
ST GEORGE      CLEAR     95  54  24 NE6       29.84F HX  93
KANAB            N/A     84  46  26 NE12      30.02F

$$

REGIONAL REPORTS     COLORADO/ARIZONA

CITY           SKY/WX    TMP DP  RH WIND       PRES   REMARKS
CRAIG, CO      MOSUNNY   83  34  17 SW5       30.09F
GRAND JUNCTION SUNNY     86  42  21 W9        29.97F
RIFLE          SUNNY     87  36  16 VRB3      30.02F
MONTROSE       SUNNY     85  37  18 N9        30.05F
CORTEZ         LGT RAIN  65  53  65 E23       30.15R
PAGE, AZ       MOSUNNY   87  51  28 W3        29.96F
GRAND CANYON   MOSUNNY   72  47  40 E14G23    30.15F
KINGMAN        CLOUDY    81  60  48 S9        29.94S
FLAGSTAFF      MOSUNNY   64  56  75 VRB6      30.18F

$$

REGIONAL REPORTS    NEVADA/IDAHO/WYOMING

CITY           SKY/WX    TMP DP  RH WIND       PRES   REMARKS
LAS VEGAS, NV  MOSUNNY   94  57  28 VRB3      29.77F HX  92
ELY            MOSUNNY   84  39  20 VRB6      30.04F
ELKO           SUNNY     92  36  14 S10       29.91F
POCATELLO, ID  MOSUNNY   91  41  17 VRB5      29.91F
BURLEY         PTSUNNY   91  46  21 N7        29.85F
EVANSTON, WY   MOSUNNY   78  39  24 E9        30.15F
ROCK SPRINGS   SUNNY     79  34  19 MISG      30.13F

$$



USA.gov is the U.S. government's official web portal to all federal, state and local government web resources and services.